Location: Seattle
(47.6064°N, 122.3308°W)
Time: 01:08:33
(UTC-08:00)

A-11 Canister half - Pass Details

Date: 28 November 2020
Orbit: 1524 x 1684 km, 47.3° (Epoch: 21 January)

Event Time Altitude Azimuth Distance (km) Brightness Sun altitude
Rises 09:07:37 0° 270° (W) 4,925 11.3 11.1°
Reaches altitude 10° 09:10:48 10° 270° (W) 3,926 10.8 11.4°
Maximum altitude 09:20:54 89° 184° (S) 1,641 9.5 12.5°
Drops below altitude 10° 09:30:41 10° 95° (E) 3,806 11.8 13.5°
Sets 09:33:44 0° 95° (E) 4,770 12.2 13.7°
